Theta_e
303 304 304 304 304 305 305 305 306 306 307 308 311 315 314 315 315 314 315 318 320 319 321 325 335 329 332 328 330 337 330 336 340 346 350 352 356 351 351 354 353 352 351 350 350
304 304 304 304 304 305 305 305 305 306 307 308 315 315 314 313 314 318 318 318 318 319 323 321 320 324 324 328 329 327 326 331 334 340 347 353 355 352 354 356 356 354 351 351 352
303 304 304 304 304 305 305 305 305 306 306 308 318 316 314 312 324 317 320 319 318 318 321 320 320 323 327 322 322 325 327 329 335 336 346 352 353 353 355 358 355 356 355 353 352
303 303 304 304 304 304 305 305 305 306 307 307 317 315 313 318 314 327 327 324 320 318 321 319 324 328 328 326 323 327 325 333 334 343 346 351 353 355 354 354 351 352 353 352 351
303 303 304 304 304 305 305 305 306 306 307 308 315 314 315 321 316 320 321 324 323 321 319 318 323 328 327 323 321 326 331 337 340 344 346 349 354 355 357 353 351 352 352 352 351
303 303 303 304 304 305 305 306 306 307 307 310 314 313 319 316 318 322 323 322 319 321 318 319 320 326 325 322 322 324 332 337 339 343 347 347 353 354 355 352 352 353 352 351 351
303 303 303 304 304 305 305 306 306 307 308 314 314 318 325 313 321 329 325 323 320 322 317 318 320 322 323 323 325 329 339 340 340 342 347 347 352 359 354 351 352 353 352 351 351
303 303 304 304 304 305 306 307 307 309 312 315 314 323 314 317 321 322 323 322 320 319 319 321 320 322 323 323 326 324 327 342 339 343 345 342 354 353 354 353 354 353 352 352 351
303 303 304 304 305 305 306 308 308 315 315 316 321 324 322 323 326 324 325 320 317 319 317 318 321 320 321 325 326 324 329 336 343 342 344 343 349 350 354 354 355 353 352 352 349
304 303 303 304 305 305 307 308 319 318 318 322 324 323 321 324 328 327 323 322 316 315 318 319 318 321 320 323 330 330 326 334 343 343 340 343 345 350 349 351 353 353 351 350 347
304 303 303 304 305 306 308 308 311 317 323 321 320 321 322 325 326 325 326 320 319 318 318 319 318 319 320 322 327 330 330 331 331 332 339 341 342 350 348 348 348 347 347 346 344
303 303 303 304 305 307 309 308 312 312 312 316 319 322 323 324 326 325 324 320 318 318 318 318 318 319 322 324 327 327 328 327 327 331 338 336 342 348 347 348 347 347 345 344 343
303 303 303 303 305 312 306 309 312 309 314 316 317 322 323 324 326 326 319 317 318 317 317 317 319 321 323 324 325 323 324 325 326 333 339 342 345 346 345 344 344 344 344 343 343
302 303 303 302 306 305 309 310 308 309 315 319 319 320 324 326 327 326 320 319 319 317 318 318 318 321 322 324 323 323 323 324 324 336 341 339 345 343 345 345 343 343 343 342 342
302 303 303 302 304 306 308 308 308 312 320 319 321 322 321 323 326 328 320 319 318 318 317 318 320 320 320 321 322 323 322 323 324 332 337 341 335 338 342 344 344 343 342 342 342
303 302 302 304 304 306 307 308 310 319 324 323 323 321 323 324 326 323 320 320 318 320 319 317 319 319 320 321 322 323 324 323 320 321 325 334 332 328 344 345 344 343 342 342 342
303 302 301 304 305 306 307 306 313 320 322 323 321 321 321 323 324 323 322 320 318 318 318 319 319 319 322 322 321 322 319 321 324 325 326 321 329 333 337 342 343 343 343 342 342
303 302 303 304 304 305 308 308 313 316 320 321 320 319 321 323 324 324 322 321 318 317 316 318 319 320 321 320 320 321 319 321 326 327 327 322 326 327 325 335 340 340 343 343 342
303 303 304 306 307 306 306 308 312 314 318 320 320 320 322 324 324 323 320 322 320 316 319 316 318 322 324 322 320 322 323 321 322 322 326 325 328 330 331 329 333 341 343 344 343
303 304 305 310 308 307 306 309 309 312 316 318 320 320 321 319 322 322 320 322 322 319 317 318 322 322 325 325 324 323 321 325 320 328 330 327 331 330 332 331 335 340 343 344 342
303 303 306 309 309 305 306 306 310 311 313 315 316 318 318 318 318 318 320 322 322 320 318 318 320 323 325 324 324 323 323 320 320 321 326 327 326 325 329 330 336 341 343 341 337
301 300 310 310 311 306 309 309 311 312 311 312 313 313 315 316 316 316 318 320 321 320 318 315 317 320 322 322 323 321 322 321 323 323 321 322 325 326 329 326 332 335 336 336 337
299 299 305 306 309 310 310 312 312 311 311 311 311 312 314 314 314 315 316 318 319 321 319 316 316 318 320 320 322 325 321 321 320 319 325 328 327 328 327 331 329 332 334 337 339
301 304 302 304 305 311 312 314 315 315 312 311 312 312 311 311 310 312 317 319 320 323 334 323 316 321 325 323 322 325 324 323 322 324 323 326 328 332 330 330 332 333 332 334 337
299 303 305 308 309 308 310 313 317 318 318 317 316 313 312 311 310 311 313 315 317 323 330 323 323 319 322 324 322 324 325 323 323 323 326 326 326 329 330 329 333 329 330 337 340
301 303 304 305 305 309 310 312 313 315 315 317 317 318 317 311 310 314 312 314 316 319 326 321 323 323 325 324 322 326 325 325 324 324 324 325 325 326 329 329 330 329 336 340 342
304 305 306 305 306 309 310 312 313 313 313 314 315 315 317 319 316 313 313 313 313 322 321 323 322 320 325 325 324 325 326 326 325 324 324 326 325 326 329 331 331 331 336 339 341
Wind_Speed
22 22 22 21 21 21 22 23 24 23 24 23 18 15 14 15 17 15 8 9 7 13 4 3 6 6 3 3 4 3 3 2 7 8 6 8 7 4 9 11 2 4 8 13 23
22 23 23 23 22 22 22 23 23 24 25 23 18 13 13 14 14 15 25 19 15 13 7 10 5 8 2 3 2 3 4 7 7 7 10 14 9 12 6 7 9 14 16 23 23
25 24 25 25 24 24 24 24 24 26 24 22 16 11 11 10 4 9 6 12 28 17 9 3 2 4 3 5 5 6 6 7 8 7 13 15 11 4 17 3 10 19 19 19 23
27 27 25 27 28 27 26 26 25 26 24 20 13 8 7 3 5 3 6 5 12 24 10 3 3 3 2 1 3 4 5 8 10 10 14 17 8 12 4 8 16 16 18 17 17
27 28 28 27 29 30 29 27 26 26 23 17 9 5 2 2 10 10 11 5 13 19 9 4 3 4 2 3 7 5 6 12 18 17 14 13 13 7 6 17 18 17 17 16 15
27 28 28 29 30 31 31 29 28 24 21 12 6 1 2 4 7 9 10 6 16 16 7 5 4 5 1 2 3 5 7 14 17 14 14 14 8 5 7 18 19 19 17 16 14
30 29 30 31 32 33 32 30 29 25 16 5 3 3 1 15 2 8 6 5 14 15 5 9 2 3 2 7 2 2 7 5 11 10 6 13 4 8 18 17 19 18 17 16 17
30 30 31 33 33 35 33 29 30 21 3 2 7 3 7 5 10 12 8 4 10 10 11 4 10 1 3 3 6 6 5 5 4 6 11 5 5 9 18 18 18 18 15 16 16
32 32 32 34 36 35 34 29 22 5 3 6 4 3 9 10 7 21 14 5 8 10 5 1 4 3 3 4 5 7 5 3 0 6 5 4 4 14 19 18 17 17 16 16 15
34 32 33 35 37 39 34 24 4 2 3 1 1 2 7 4 5 8 21 13 3 6 3 4 3 3 3 4 3 6 5 1 7 11 4 4 5 20 20 19 19 18 16 16 15
36 34 34 36 36 37 28 2 4 3 2 6 6 5 8 8 10 7 12 8 0 3 5 4 4 7 11 7 4 4 5 6 6 4 1 8 9 22 20 16 16 16 17 15 15
36 36 36 36 39 21 12 4 6 2 9 9 17 11 19 7 4 4 14 6 5 5 3 3 8 7 6 7 4 3 3 6 6 8 9 7 5 19 20 23 21 20 17 16 12
36 36 38 37 28 2 20 4 5 17 3 8 8 7 6 11 9 9 10 6 4 5 5 7 4 8 6 3 2 4 5 5 8 4 4 10 2 9 14 9 14 15 13 12 15
36 36 39 39 2 21 10 1 22 3 3 7 5 9 8 9 5 11 16 7 4 11 5 6 6 2 3 4 6 4 6 5 7 7 6 3 7 8 15 16 13 16 15 14 15
38 37 37 31 19 7 7 21 26 5 4 5 5 1 6 12 5 8 10 4 8 6 7 9 5 5 5 10 6 13 7 6 6 7 4 3 4 6 12 11 19 20 18 18 18
39 40 36 16 11 21 12 29 2 4 7 6 3 5 6 4 6 3 6 4 5 4 1 8 1 6 9 5 12 2 1 7 5 3 1 8 7 4 11 26 26 16 19 20 18
41 40 34 22 6 8 19 7 2 5 4 6 3 2 6 7 9 7 12 12 7 7 7 5 7 5 2 6 2 5 6 4 2 2 6 7 3 9 16 21 25 26 24 21 19
46 38 32 27 21 15 3 4 7 8 10 3 2 4 4 4 8 6 12 13 4 6 4 6 6 7 3 10 7 7 9 6 5 4 5 2 7 8 12 19 24 22 26 23 19
44 27 24 15 11 16 4 5 8 7 6 4 4 2 4 4 5 6 10 18 14 9 9 7 7 5 5 8 11 4 3 6 7 3 1 3 6 7 2 9 11 17 18 20 21
32 15 14 8 12 15 3 7 6 5 1 2 4 2 2 1 4 4 8 10 7 16 4 7 2 6 6 3 3 8 7 2 3 5 5 5 4 6 6 9 5 10 19 18 16
10 4 11 5 18 3 5 7 6 11 4 1 5 3 1 3 3 4 4 4 14 11 16 7 4 7 2 6 9 1 2 5 5 5 7 4 7 8 10 11 12 14 15 14 13
6 4 9 8 2 1 2 6 5 5 1 5 1 5 2 2 3 6 8 6 5 7 12 10 7 7 18 5 3 5 7 7 5 5 2 5 7 5 10 7 7 10 11 13 18
4 3 9 2 3 3 5 5 5 6 5 6 6 5 2 4 1 6 7 8 9 9 11 8 5 3 9 6 3 5 5 5 3 3 8 6 6 3 5 7 5 8 8 8 7
2 4 4 3 1 2 4 4 5 5 14 8 4 3 4 5 7 7 5 5 4 3 13 10 5 13 17 13 6 5 5 6 7 5 5 7 6 3 6 10 5 5 6 8 9
1 4 2 4 3 7 4 3 3 3 3 4 4 10 10 7 8 11 8 8 8 8 5 12 15 7 15 21 8 9 8 9 8 7 9 11 10 10 14 12 16 10 8 8 7
2 2 3 4 4 5 4 4 5 6 4 4 2 8 7 9 8 3 7 7 8 5 4 4 6 18 18 17 11 11 11 9 10 3 9 3 6 8 8 8 7 14 13 11 10
4 3 2 3 5 3 2 5 8 7 6 7 6 7 11 8 10 16 15 12 8 5 4 4 6 5 14 15 7 4 17 12 7 5 9 6 11 7 5 10 15 11 11 13 9
Wind_Direction
7 5 1 360 358 355 354 352 350 346 342 335 327 320 317 312 305 292 245 234 190 233 231 170 184 225 210 278 212 135 60 137 189 169 159 149 152 150 95 133 162 156 135 144 151
1 359 358 356 354 352 350 351 349 346 342 336 326 318 318 319 314 276 259 250 232 237 219 188 151 162 182 240 284 121 136 212 191 168 160 161 167 132 125 129 101 102 116 138 143
360 354 352 352 352 350 347 347 345 344 341 335 326 315 321 328 330 251 290 251 233 227 224 223 149 178 222 170 215 190 201 168 168 159 153 146 148 105 134 110 157 147 148 149 151
360 355 351 347 346 347 346 344 343 339 339 334 327 315 318 353 257 253 323 283 211 210 215 202 110 125 258 281 262 255 232 168 143 140 152 155 122 137 206 158 149 151 153 153 161
356 355 353 346 343 341 340 340 340 336 334 328 323 316 355 346 251 262 301 302 186 179 192 158 123 151 287 285 314 81 352 128 139 151 154 136 136 129 120 137 144 150 159 170 174
353 351 349 345 343 339 335 334 335 329 327 319 304 226 123 265 270 289 267 184 167 175 176 146 207 191 209 277 47 319 42 130 138 149 143 125 132 89 152 148 152 161 172 175 185
352 348 346 343 343 338 333 328 329 322 317 299 263 140 189 237 257 318 213 218 193 196 131 206 214 26 41 330 148 297 71 52 137 137 113 117 28 151 156 161 160 173 178 184 190
350 347 344 342 339 337 330 326 326 317 294 171 148 135 248 267 317 238 199 235 211 205 214 226 210 305 174 265 29 76 56 120 236 175 160 99 205 165 162 166 176 180 189 192 196
347 345 342 339 337 336 327 328 324 360 119 140 140 178 265 304 263 226 230 218 188 203 219 242 157 198 10 99 46 5 177 127 356 231 139 83 148 173 174 177 183 193 193 196 200
347 343 340 337 336 333 325 331 341 75 118 152 220 337 272 308 240 223 218 199 145 130 187 162 78 115 32 84 188 137 144 214 173 214 187 198 197 167 181 185 190 196 201 200 198
346 343 339 334 336 330 333 12 14 351 210 224 216 251 293 308 327 200 177 158 176 112 162 185 124 195 204 184 145 119 158 175 252 246 104 212 157 176 185 194 198 198 199 202 202
344 343 340 334 337 336 14 46 88 309 300 239 249 248 252 291 305 311 159 157 140 192 154 47 220 198 151 161 175 192 256 267 230 193 169 176 221 181 184 200 197 200 203 203 195
342 341 342 334 336 29 331 246 343 350 226 280 206 207 201 154 205 245 162 145 151 185 189 178 203 137 163 157 177 221 200 244 218 35 71 114 26 194 211 212 215 218 213 209 193
340 340 342 338 359 329 310 211 327 326 2 270 228 252 164 138 255 209 175 144 213 195 153 236 241 199 106 256 129 281 205 259 253 166 195 165 222 221 205 212 219 219 210 206 201
337 337 337 340 297 298 313 328 331 160 322 247 235 206 196 158 148 222 165 84 175 174 128 237 185 180 193 230 144 236 139 215 248 163 110 208 85 249 153 217 224 219 212 209 205
333 331 332 328 283 283 306 331 29 55 238 300 242 184 138 191 170 89 142 102 157 131 251 226 179 169 207 236 186 304 20 36 64 110 251 219 152 245 182 210 224 219 217 213 203
330 325 314 282 239 287 314 351 72 182 250 251 267 152 196 170 173 170 172 181 160 158 231 348 262 253 151 313 91 106 65 323 341 10 207 162 119 237 209 213 213 207 215 210 203
329 323 306 279 271 265 286 61 212 191 222 290 331 27 188 159 203 164 165 193 208 115 137 169 291 183 184 190 200 178 162 170 197 207 228 75 202 245 219 223 217 211 209 202 200
329 324 305 302 247 187 108 189 209 213 201 284 6 284 223 218 168 141 181 197 195 176 171 155 257 272 197 199 148 237 178 198 113 8 31 217 286 322 174 258 241 216 204 203 202
326 317 286 330 184 162 114 226 220 236 346 53 180 154 201 92 113 172 175 198 209 193 150 205 256 211 244 153 247 165 167 93 1 157 236 286 279 234 307 282 271 199 204 203 202
326 340 330 175 146 42 197 218 223 266 358 137 218 231 137 6 104 148 241 256 201 195 191 157 147 270 87 186 199 203 186 46 121 136 176 217 258 218 221 230 205 202 197 189 187
356 322 116 146 41 208 208 189 233 240 97 255 216 209 213 165 246 208 205 192 173 157 173 207 183 227 240 231 225 164 204 168 149 226 160 169 262 215 241 207 190 203 190 191 203
321 257 282 173 221 243 276 268 236 223 217 197 219 183 168 151 328 225 223 222 230 192 192 175 219 242 293 309 328 209 194 149 105 70 189 176 260 339 200 165 221 192 175 182 159
331 318 312 33 345 28 353 263 244 239 257 248 236 281 294 265 211 254 254 290 351 282 216 157 159 195 226 228 167 203 192 175 153 171 174 208 221 246 212 178 199 182 165 172 175
228 258 278 329 322 328 277 257 250 268 305 213 233 209 206 234 207 233 237 270 284 273 241 171 223 186 224 222 181 189 192 170 182 198 187 230 198 217 201 194 192 171 162 142 173
257 329 346 287 284 315 278 40 37 360 306 303 244 335 281 223 208 252 201 199 242 297 231 157 237 211 230 227 212 210 229 220 220 176 252 185 229 222 198 82 136 177 167 168 175
250 299 303 284 311 348 264 359 337 357 274 285 335 313 290 266 253 242 235 239 230 229 285 192 153 133 230 220 195 271 228 209 197 179 167 173 225 154 159 170 180 181 178 165 169